QPF
0.00 0.00 0.00 0.00 0.00 0.00 0.00 0.00 0.00 0.00 0.00 0.00 0.00 0.00 0.00 0.00 0.00 0.00 0.00 0.00 0.00 0.00 0.00 0.00 0.00 0.00 0.00 0.00 0.00 0.00 0.00 0.00 0.00 0.00 0.00 0.00 0.00 0.00 0.00 0.00 0.00 0.00 0.03 0.02 0.00
0.00 0.00 0.00 0.00 0.00 0.00 0.00 0.00 0.00 0.00 0.00 0.00 0.00 0.00 0.00 0.00 0.00 0.00 0.00 0.00 0.00 0.00 0.00 0.00 0.00 0.00 0.00 0.00 0.00 0.00 0.00 0.00 0.00 0.00 0.00 0.00 0.00 0.00 0.00 0.00 0.00 0.00 0.00 0.00 0.00
0.00 0.00 0.00 0.00 0.00 0.00 0.00 0.00 0.00 0.00 0.00 0.00 0.00 0.00 0.00 0.00 0.00 0.00 0.00 0.00 0.00 0.00 0.00 0.00 0.00 0.00 0.00 0.00 0.00 0.00 0.00 0.00 0.00 0.00 0.00 0.00 0.00 0.00 0.00 0.00 0.00 0.00 0.00 0.00 0.00
0.00 0.00 0.00 0.00 0.00 0.00 0.00 0.00 0.00 0.00 0.00 0.00 0.00 0.00 0.00 0.00 0.00 0.00 0.00 0.00 0.00 0.00 0.00 0.00 0.00 0.00 0.00 0.00 0.00 0.00 0.00 0.00 0.00 0.00 0.00 0.00 0.00 0.00 0.00 0.00 0.00 0.00 0.00 0.00 0.00
0.00 0.00 0.00 0.00 0.00 0.00 0.00 0.00 0.00 0.00 0.00 0.00 0.00 0.00 0.00 0.00 0.00 0.00 0.00 0.00 0.00 0.00 0.00 0.00 0.00 0.00 0.00 0.00 0.00 0.00 0.00 0.00 0.00 0.00 0.00 0.00 0.00 0.00 0.00 0.00 0.00 0.00 0.00 0.01 0.00
0.00 0.00 0.00 0.00 0.00 0.00 0.00 0.00 0.00 0.00 0.00 0.00 0.00 0.00 0.00 0.00 0.00 0.00 0.00 0.00 0.00 0.00 0.00 0.00 0.00 0.00 0.00 0.00 0.00 0.00 0.00 0.00 0.00 0.00 0.00 0.00 0.00 0.00 0.00 0.00 0.00 0.00 0.00 0.00 0.00
0.00 0.00 0.00 0.00 0.00 0.00 0.00 0.00 0.00 0.00 0.00 0.00 0.00 0.00 0.00 0.00 0.00 0.00 0.00 0.00 0.00 0.00 0.00 0.00 0.00 0.00 0.00 0.00 0.00 0.00 0.00 0.00 0.00 0.00 0.00 0.00 0.00 0.00 0.00 0.00 0.00 0.00 0.00 0.00 0.00
0.00 0.00 0.00 0.00 0.00 0.00 0.00 0.00 0.00 0.00 0.00 0.00 0.00 0.00 0.00 0.00 0.00 0.00 0.00 0.00 0.00 0.00 0.00 0.00 0.00 0.00 0.00 0.00 0.00 0.00 0.00 0.00 0.00 0.00 0.00 0.00 0.00 0.00 0.00 0.00 0.00 0.00 0.00 0.00 0.00
0.00 0.00 0.00 0.00 0.00 0.00 0.00 0.00 0.00 0.00 0.00 0.00 0.00 0.00 0.00 0.00 0.00 0.00 0.00 0.00 0.00 0.00 0.00 0.00 0.00 0.00 0.00 0.00 0.00 0.00 0.00 0.00 0.00 0.00 0.00 0.00 0.00 0.00 0.00 0.00 0.00 0.00 0.00 0.00 0.00
0.00 0.00 0.00 0.00 0.00 0.00 0.00 0.00 0.00 0.00 0.00 0.00 0.00 0.00 0.00 0.00 0.00 0.00 0.00 0.00 0.00 0.00 0.00 0.00 0.00 0.00 0.00 0.00 0.00 0.00 0.00 0.00 0.00 0.00 0.00 0.00 0.00 0.00 0.00 0.00 0.00 0.00 0.00 0.00 0.01
0.00 0.00 0.00 0.00 0.00 0.00 0.00 0.00 0.00 0.00 0.00 0.00 0.00 0.00 0.00 0.00 0.00 0.00 0.00 0.00 0.00 0.00 0.00 0.00 0.00 0.00 0.00 0.00 0.00 0.00 0.00 0.00 0.00 0.00 0.00 0.00 0.00 0.00 0.00 0.00 0.00 0.00 0.00 0.00 0.00
0.00 0.00 0.00 0.00 0.00 0.00 0.00 0.00 0.00 0.00 0.00 0.00 0.00 0.00 0.00 0.00 0.00 0.00 0.00 0.00 0.00 0.00 0.00 0.00 0.00 0.00 0.00 0.00 0.00 0.00 0.00 0.00 0.00 0.00 0.00 0.00 0.00 0.00 0.00 0.00 0.00 0.00 0.00 0.00 0.01
0.00 0.00 0.00 0.00 0.00 0.00 0.00 0.00 0.00 0.00 0.00 0.00 0.00 0.00 0.00 0.00 0.00 0.00 0.00 0.00 0.00 0.00 0.00 0.00 0.00 0.00 0.00 0.00 0.00 0.00 0.00 0.00 0.00 0.00 0.00 0.00 0.00 0.00 0.00 0.00 0.00 0.01 0.00 0.00 0.00
0.00 0.00 0.00 0.00 0.00 0.00 0.00 0.00 0.00 0.00 0.00 0.00 0.00 0.00 0.00 0.00 0.00 0.00 0.00 0.00 0.00 0.00 0.00 0.00 0.00 0.00 0.00 0.00 0.00 0.00 0.00 0.00 0.00 0.00 0.00 0.00 0.00 0.00 0.00 0.00 0.02 0.02 0.00 0.00 0.00
0.00 0.00 0.00 0.00 0.00 0.00 0.00 0.00 0.00 0.00 0.00 0.00 0.00 0.00 0.00 0.00 0.00 0.00 0.00 0.00 0.00 0.00 0.00 0.00 0.00 0.00 0.00 0.00 0.00 0.00 0.00 0.00 0.00 0.00 0.00 0.00 0.00 0.00 0.00 0.02 0.03 0.01 0.00 0.00 0.00
0.00 0.00 0.00 0.00 0.00 0.00 0.00 0.00 0.00 0.00 0.00 0.00 0.00 0.00 0.00 0.00 0.00 0.00 0.00 0.00 0.00 0.00 0.00 0.00 0.00 0.00 0.00 0.00 0.00 0.00 0.00 0.00 0.00 0.00 0.00 0.00 0.00 0.03 0.03 0.06 0.02 0.00 0.00 0.00 0.00
0.00 0.00 0.00 0.00 0.00 0.00 0.00 0.00 0.00 0.00 0.00 0.00 0.00 0.00 0.00 0.00 0.00 0.00 0.00 0.00 0.00 0.00 0.00 0.00 0.00 0.00 0.00 0.00 0.00 0.00 0.00 0.00 0.00 0.00 0.00 0.00 0.00 0.03 0.09 0.08 0.02 0.00 0.00 0.00 0.00
0.00 0.00 0.00 0.00 0.00 0.00 0.00 0.00 0.00 0.00 0.00 0.00 0.00 0.00 0.00 0.00 0.00 0.00 0.00 0.00 0.00 0.00 0.00 0.00 0.00 0.00 0.00 0.00 0.00 0.00 0.00 0.00 0.00 0.00 0.00 0.00 0.00 0.01 0.03 0.02 0.00 0.00 0.00 0.00 0.00
0.00 0.00 0.00 0.00 0.00 0.00 0.00 0.00 0.00 0.00 0.00 0.00 0.00 0.00 0.00 0.00 0.00 0.00 0.00 0.00 0.00 0.00 0.00 0.00 0.00 0.00 0.00 0.00 0.00 0.00 0.00 0.00 0.00 0.00 0.00 0.00 0.04 0.04 0.03 0.01 0.01 0.01 0.00 0.00 0.00
0.00 0.00 0.00 0.00 0.00 0.00 0.00 0.00 0.00 0.00 0.00 0.00 0.00 0.00 0.00 0.00 0.00 0.00 0.00 0.00 0.00 0.00 0.00 0.00 0.00 0.00 0.00 0.00 0.00 0.00 0.00 0.00 0.00 0.00 0.00 0.00 0.01 0.02 0.02 0.06 0.03 0.00 0.00 0.00 0.00
0.00 0.00 0.00 0.00 0.00 0.00 0.00 0.00 0.00 0.00 0.00 0.00 0.00 0.00 0.00 0.00 0.00 0.00 0.00 0.00 0.00 0.00 0.00 0.00 0.00 0.00 0.00 0.00 0.00 0.00 0.00 0.00 0.00 0.00 0.00 0.00 0.00 0.00 0.00 0.02 0.03 0.00 0.00 0.00 0.00
0.00 0.00 0.00 0.00 0.00 0.00 0.00 0.00 0.00 0.00 0.00 0.00 0.00 0.00 0.00 0.00 0.00 0.00 0.00 0.00 0.00 0.00 0.00 0.00 0.00 0.00 0.00 0.00 0.00 0.00 0.00 0.00 0.00 0.00 0.00 0.00 0.03 0.00 0.00 0.00 0.01 0.00 0.00 0.00 0.00
0.00 0.00 0.00 0.00 0.00 0.00 0.00 0.00 0.00 0.00 0.00 0.00 0.00 0.00 0.00 0.00 0.00 0.00 0.00 0.00 0.00 0.00 0.00 0.00 0.00 0.00 0.00 0.00 0.00 0.00 0.00 0.00 0.00 0.00 0.00 0.00 0.04 0.01 0.00 0.00 0.00 0.00 0.00 0.00 0.00
0.00 0.00 0.00 0.00 0.00 0.00 0.00 0.00 0.00 0.00 0.00 0.00 0.00 0.00 0.00 0.00 0.00 0.00 0.00 0.00 0.00 0.00 0.00 0.00 0.00 0.00 0.00 0.00 0.00 0.00 0.00 0.00 0.00 0.00 0.00 0.01 0.04 0.02 0.00 0.00 0.00 0.00 0.00 0.00 0.00
0.00 0.00 0.00 0.00 0.00 0.00 0.00 0.00 0.00 0.00 0.00 0.00 0.00 0.00 0.00 0.00 0.00 0.00 0.00 0.00 0.00 0.00 0.00 0.00 0.00 0.00 0.00 0.00 0.00 0.00 0.00 0.00 0.00 0.00 0.01 0.02 0.04 0.02 0.00 0.00 0.00 0.00 0.00 0.00 0.00
0.00 0.00 0.00 0.00 0.00 0.00 0.00 0.00 0.00 0.00 0.00 0.00 0.00 0.00 0.00 0.00 0.00 0.00 0.00 0.00 0.00 0.00 0.00 0.00 0.00 0.00 0.00 0.00 0.00 0.00 0.00 0.00 0.00 0.00 0.01 0.02 0.03 0.00 0.00 0.00 0.00 0.00 0.00 0.00 0.00
0.00 0.00 0.00 0.00 0.00 0.00 0.00 0.00 0.00 0.00 0.00 0.00 0.00 0.00 0.00 0.00 0.00 0.00 0.00 0.00 0.00 0.00 0.00 0.00 0.00 0.00 0.00 0.00 0.00 0.01 0.00 0.00 0.00 0.01 0.00 0.01 0.00 0.00 0.00 0.00 0.00 0.00 0.00 0.00 0.00
MSLP
1016.67 1016.55 1016.36 1016.26 1015.93 1015.71 1015.54 1015.38 1015.16 1015.05 1014.99 1014.68 1014.08 1013.52 1013.33 1012.91 1011.84 1011.21 1009.64 1008.48 1008.26 1008.07 1008.02 1006.97 1005.71 1005.09 1004.63 1003.93 1003.12 1002.61 1002.13 1001.39 1000.22 999.44 999.47 999.90 1000.09 1001.03 1001.31 1003.53 1004.19 1003.39 1005.59 1005.94 1005.76
1016.45 1016.46 1016.30 1015.95 1015.61 1015.39 1015.35 1015.28 1015.13 1014.99 1014.68 1014.08 1013.58 1013.37 1013.34 1012.94 1011.29 1009.33 1008.42 1008.07 1008.01 1008.09 1007.65 1006.33 1004.75 1003.92 1003.50 1002.62 1002.54 1002.23 1001.82 1002.42 1000.25 999.81 999.62 999.52 999.95 1000.39 1000.81 1001.55 1002.30 1003.56 1004.34 1004.97 1005.01
1016.44 1016.22 1015.99 1015.80 1015.62 1015.49 1015.38 1015.17 1014.92 1014.69 1014.16 1013.71 1013.47 1013.32 1013.26 1012.81 1010.48 1007.81 1008.06 1007.89 1007.91 1008.07 1007.46 1006.05 1004.76 1003.91 1002.84 1001.98 1001.88 1001.38 1000.76 1000.76 1000.26 1000.63 1000.40 1000.11 999.70 999.97 1000.36 1000.75 1001.95 1003.63 1007.15 1003.23 1005.12
1016.49 1016.18 1015.89 1015.62 1015.38 1015.27 1015.09 1014.84 1014.66 1014.25 1013.91 1013.68 1013.42 1013.15 1012.82 1012.07 1008.83 1007.56 1007.78 1007.76 1007.99 1007.88 1007.11 1005.42 1003.96 1003.16 1002.19 1001.79 1001.29 1001.21 1000.59 1000.70 1000.45 1000.65 1000.64 1000.27 999.86 999.86 1000.11 1000.49 1001.67 1002.40 1003.86 1006.64 1006.51
1016.30 1015.94 1015.65 1015.43 1015.27 1015.06 1014.78 1014.56 1014.32 1014.05 1013.81 1013.51 1013.38 1013.19 1011.86 1010.06 1007.23 1007.34 1007.50 1007.78 1007.68 1007.32 1006.13 1004.24 1003.18 1002.62 1001.82 1001.32 1001.24 1001.31 1000.51 1000.74 1000.68 1000.91 1000.81 1000.67 1000.55 1000.39 1000.22 1000.18 1001.21 1001.70 1004.42 1006.48 1007.78
1016.17 1015.80 1015.52 1015.30 1015.07 1014.76 1014.51 1014.36 1014.10 1013.83 1013.55 1013.43 1013.46 1013.14 1011.65 1008.37 1006.02 1006.70 1006.72 1006.82 1006.59 1005.73 1004.64 1003.91 1003.23 1003.09 1002.39 1001.83 1001.51 1001.15 1000.96 1000.80 1000.84 1000.69 1000.92 1001.15 1000.76 1000.46 1000.37 1000.73 1001.20 1001.95 1003.95 1006.66 1007.75
1016.13 1015.79 1015.35 1015.05 1014.76 1014.53 1014.30 1014.06 1013.82 1013.60 1013.38 1013.25 1013.38 1012.72 1010.29 1006.94 1005.72 1005.92 1006.25 1005.99 1005.40 1005.21 1004.63 1004.09 1004.08 1003.65 1002.91 1002.06 1001.78 1001.57 1001.51 1001.04 1000.63 1000.70 1001.01 1001.49 1001.08 1000.98 1000.96 1001.30 1001.88 1002.52 1003.15 1004.41 1008.79
1016.09 1015.60 1015.17 1014.88 1014.55 1014.19 1013.98 1013.77 1013.57 1013.34 1013.13 1013.02 1013.08 1011.97 1008.54 1005.81 1005.54 1005.73 1005.64 1005.39 1005.26 1005.00 1004.89 1004.68 1004.42 1004.04 1003.47 1002.50 1002.08 1001.86 1001.51 1000.58 999.59 1000.70 1001.28 1001.59 1000.83 1001.03 1001.62 1002.01 1002.47 1003.16 1005.08 1008.02 1010.39
1015.87 1015.34 1014.92 1014.56 1014.17 1013.93 1013.77 1013.53 1013.22 1012.96 1012.89 1012.82 1012.34 1010.84 1006.91 1006.06 1005.54 1005.25 1005.30 1004.86 1004.55 1004.58 1004.59 1004.52 1004.41 1003.79 1002.95 1002.29 1001.68 1001.18 1000.52 1000.12 1000.17 1000.73 1001.40 1001.57 1001.24 1001.43 1002.04 1002.73 1003.32 1004.24 1006.69 1009.31 1011.59
1015.75 1015.22 1014.80 1014.31 1013.99 1013.81 1013.58 1013.40 1012.89 1012.64 1012.29 1011.42 1010.54 1009.50 1006.18 1004.86 1004.92 1005.12 1005.20 1005.25 1004.87 1004.27 1004.09 1004.02 1003.62 1003.10 1002.35 1001.71 1001.36 1000.89 1000.45 1000.03 1000.10 1001.36 1001.81 1002.05 1001.89 1001.33 1001.97 1003.04 1004.20 1005.31 1008.12 1010.64 1012.70
1015.49 1014.97 1014.45 1014.00 1013.76 1013.63 1013.29 1012.73 1012.60 1011.35 1010.02 1008.28 1006.91 1005.99 1005.09 1004.97 1005.24 1004.93 1004.84 1004.84 1004.45 1003.97 1003.22 1002.77 1002.35 1002.07 1002.25 1002.35 1002.28 1001.86 1001.47 1001.26 1001.05 1001.43 1002.09 1002.39 1002.41 1001.90 1002.42 1003.62 1005.18 1006.66 1009.38 1011.61 1013.18
1015.37 1014.73 1014.12 1013.78 1013.53 1013.41 1013.04 1010.59 1008.98 1008.28 1007.50 1006.40 1005.93 1005.67 1005.24 1004.83 1004.30 1004.33 1004.55 1004.25 1003.62 1003.06 1002.70 1002.25 1001.89 1002.56 1003.01 1003.12 1002.92 1002.54 1002.11 1002.20 1002.24 1002.29 1002.62 1002.57 1002.28 1002.12 1002.86 1004.96 1007.10 1008.77 1010.63 1012.20 1013.72
1015.28 1014.58 1014.02 1013.63 1013.20 1012.92 1010.56 1008.78 1007.91 1007.34 1006.81 1005.31 1005.10 1004.88 1004.82 1004.70 1003.82 1003.86 1004.25 1003.65 1003.17 1002.77 1002.48 1002.11 1002.76 1003.44 1003.43 1002.98 1003.20 1002.90 1002.89 1003.22 1003.56 1003.31 1003.09 1002.56 1002.14 1002.48 1004.69 1007.44 1009.83 1012.47 1011.16 1013.59 1014.46
1015.12 1014.48 1014.05 1013.53 1013.09 1009.73 1008.30 1007.95 1007.26 1007.56 1006.60 1004.90 1004.71 1004.30 1004.55 1004.29 1004.10 1004.36 1004.16 1003.93 1003.09 1002.89 1002.92 1002.65 1003.09 1003.64 1003.50 1003.19 1003.93 1003.70 1004.42 1004.44 1004.04 1003.63 1002.93 1003.02 1003.14 1004.37 1007.80 1010.46 1012.07 1014.41 1014.15 1015.36 1016.37
1015.05 1014.34 1013.94 1013.98 1011.91 1008.71 1008.06 1007.54 1007.75 1007.76 1005.72 1004.09 1003.91 1003.88 1003.81 1003.87 1003.98 1004.34 1004.35 1003.89 1003.36 1003.29 1003.59 1003.45 1003.61 1003.66 1003.54 1004.19 1004.69 1004.89 1004.94 1004.73 1004.28 1003.67 1003.25 1002.99 1004.10 1007.46 1009.74 1012.08 1013.84 1015.59 1016.80 1018.04 1019.17
1014.92 1014.19 1013.76 1012.57 1011.27 1008.74 1007.82 1007.53 1007.61 1007.30 1005.20 1003.64 1003.58 1003.83 1003.88 1003.73 1003.69 1004.09 1004.20 1004.36 1004.13 1004.06 1003.92 1003.83 1004.40 1004.44 1004.62 1004.81 1004.76 1004.91 1005.13 1005.10 1004.11 1002.89 1002.94 1004.65 1005.96 1010.28 1011.79 1013.32 1015.79 1017.69 1018.61 1019.61 1020.65
1014.60 1013.90 1013.70 1011.30 1009.21 1008.30 1008.02 1007.47 1006.92 1005.70 1005.00 1003.60 1003.49 1003.57 1003.44 1003.49 1003.82 1004.02 1004.08 1004.22 1004.32 1004.47 1004.42 1004.48 1004.56 1005.04 1005.52 1005.27 1005.50 1005.74 1005.89 1005.28 1004.69 1003.98 1004.43 1005.36 1007.00 1011.65 1013.66 1014.58 1015.89 1018.40 1019.76 1020.66 1021.13
1013.94 1013.68 1011.52 1010.19 1008.99 1008.61 1008.33 1007.62 1006.48 1004.71 1004.07 1003.98 1003.86 1003.54 1003.29 1003.40 1004.13 1004.49 1004.82 1004.53 1004.82 1005.33 1005.06 1004.78 1005.63 1006.28 1005.96 1006.26 1006.55 1006.65 1006.68 1006.58 1006.29 1006.19 1006.42 1007.00 1009.55 1012.87 1014.75 1015.62 1016.30 1018.23 1019.97 1020.57 1020.70
1013.39 1011.59 1010.56 1009.24 1009.31 1009.12 1008.35 1006.99 1005.64 1005.31 1004.89 1004.87 1004.19 1004.15 1003.68 1003.84 1004.63 1004.61 1004.89 1004.89 1006.00 1006.45 1006.57 1006.31 1005.91 1006.07 1006.27 1006.61 1006.76 1006.93 1007.13 1007.65 1007.40 1007.37 1007.43 1008.55 1011.96 1014.06 1015.36 1016.35 1017.55 1018.88 1019.83 1020.35 1020.74
1014.00 1010.97 1009.12 1009.29 1009.29 1009.11 1008.34 1007.00 1006.23 1006.24 1006.26 1005.87 1005.24 1004.36 1003.97 1004.98 1005.38 1004.76 1005.31 1006.44 1006.60 1007.39 1007.37 1007.42 1007.27 1007.08 1006.56 1006.53 1006.45 1007.45 1007.52 1007.64 1008.32 1008.59 1008.97 1009.46 1011.54 1014.07 1015.17 1016.47 1017.71 1018.42 1019.24 1020.22 1020.82
1013.58 1010.31 1009.18 1009.02 1008.89 1008.81 1007.80 1006.63 1006.45 1006.77 1007.13 1006.61 1005.97 1005.49 1005.17 1005.12 1005.20 1005.43 1005.42 1007.65 1007.78 1007.99 1008.43 1008.32 1008.79 1008.66 1008.15 1007.22 1007.08 1007.49 1007.86 1008.44 1009.30 1010.02 1010.45 1011.30 1013.49 1014.94 1016.31 1017.15 1019.03 1018.36 1019.10 1020.25 1021.25
1013.26 1009.97 1009.19 1009.03 1008.86 1008.00 1007.32 1007.55 1008.34 1007.66 1007.45 1007.22 1007.05 1006.89 1006.57 1006.39 1006.34 1006.42 1007.42 1008.45 1009.22 1009.31 1009.52 1010.02 1010.24 1009.76 1009.00 1008.10 1008.11 1008.62 1008.84 1009.64 1010.14 1010.98 1011.73 1013.03 1015.03 1016.81 1017.71 1018.43 1018.85 1019.14 1019.66 1020.32 1020.97
1014.13 1010.71 1009.19 1009.31 1008.43 1007.72 1007.92 1008.11 1008.45 1008.34 1007.89 1007.94 1007.57 1007.27 1007.52 1007.65 1007.77 1007.76 1007.84 1009.38 1009.89 1010.25 1011.27 1011.45 1011.17 1010.84 1009.85 1008.80 1009.36 1009.67 1009.37 1009.71 1010.20 1011.27 1012.25 1013.67 1016.32 1018.17 1018.49 1018.76 1018.93 1019.27 1019.63 1020.05 1020.97
1014.95 1011.07 1009.46 1009.40 1009.34 1009.39 1008.75 1008.47 1008.56 1009.13 1009.09 1009.00 1008.58 1008.33 1008.56 1008.31 1008.31 1008.62 1008.83 1009.87 1010.67 1011.56 1012.14 1012.38 1012.42 1012.13 1011.28 1010.62 1010.16 1009.62 1009.52 1009.74 1010.73 1012.36 1013.62 1015.27 1017.52 1019.06 1019.22 1018.69 1018.68 1019.30 1019.63 1020.23 1020.81
1014.74 1012.83 1012.46 1010.53 1010.40 1010.47 1010.05 1009.75 1009.36 1009.05 1009.49 1009.42 1009.17 1008.95 1008.96 1008.84 1008.73 1008.56 1009.30 1011.20 1011.80 1012.79 1012.52 1013.62 1013.02 1012.67 1012.18 1011.72 1011.03 1010.30 1010.23 1011.25 1012.91 1013.08 1014.74 1016.92 1018.80 1019.87 1018.71 1018.92 1019.02 1019.00 1019.60 1020.29 1020.45
1016.16 1014.92 1014.02 1012.47 1012.07 1011.55 1011.18 1010.50 1010.22 1009.78 1010.44 1009.94 1009.97 1009.69 1009.91 1010.05 1010.49 1010.38 1010.56 1011.40 1012.36 1013.29 1012.92 1013.17 1013.33 1013.26 1012.75 1012.10 1011.21 1010.79 1011.71 1012.01 1013.34 1014.53 1015.95 1017.97 1019.44 1019.55 1019.30 1018.49 1018.72 1019.00 1019.69 1020.28 1020.53
1017.55 1016.28 1015.40 1013.47 1012.26 1011.88 1011.00 1010.83 1011.04 1011.22 1011.25 1011.28 1011.17 1010.91 1010.92 1011.58 1011.60 1011.69 1011.79 1012.02 1012.26 1012.66 1013.13 1013.83 1013.82 1013.84 1013.20 1012.71 1012.10 1011.83 1012.95 1013.38 1014.74 1016.31 1017.40 1018.42 1019.19 1019.15 1018.77 1018.89 1019.48 1019.92 1020.53 1021.05 1021.61
Thickness
5735 5735 5736 5737 5740 5743 5744 5745 5747 5749 5751 5756 5762 5768 5771 5777 5787 5795 5799 5815 5818 5821 5822 5828 5834 5834 5837 5830 5841 5845 5806 5795 5822 5838 5838 5849 5838 5848 5854 5815 5814 5829 5801 5810 5819
5735 5735 5736 5738 5741 5743 5743 5744 5747 5750 5754 5761 5767 5770 5771 5776 5791 5800 5817 5820 5821 5821 5820 5820 5822 5834 5825 5832 5835 5821 5807 5797 5846 5849 5844 5852 5845 5841 5839 5836 5832 5817 5811 5817 5819
5734 5735 5737 5739 5741 5742 5743 5745 5748 5752 5759 5764 5768 5770 5773 5777 5788 5807 5820 5822 5822 5822 5824 5829 5832 5828 5820 5837 5834 5832 5821 5833 5847 5844 5848 5840 5846 5853 5839 5829 5828 5809 5763 5814 5815
5732 5736 5738 5741 5743 5743 5745 5748 5751 5756 5761 5765 5769 5772 5777 5783 5774 5816 5822 5823 5822 5823 5822 5826 5829 5818 5818 5817 5840 5819 5844 5841 5844 5844 5840 5835 5852 5843 5843 5839 5841 5837 5821 5798 5797
5735 5738 5741 5743 5743 5745 5748 5751 5755 5760 5763 5768 5770 5773 5786 5785 5800 5823 5824 5823 5824 5823 5820 5827 5824 5823 5816 5831 5834 5822 5841 5842 5845 5841 5839 5843 5833 5834 5838 5855 5848 5845 5807 5786 5757
5736 5740 5742 5744 5746 5749 5752 5755 5759 5763 5767 5769 5770 5774 5782 5775 5832 5827 5829 5828 5827 5829 5831 5833 5827 5831 5823 5823 5823 5837 5837 5837 5839 5840 5837 5826 5830 5838 5840 5848 5844 5845 5819 5783 5772
5737 5740 5744 5747 5750 5752 5755 5759 5762 5766 5769 5771 5771 5777 5781 5795 5835 5834 5831 5829 5837 5832 5822 5836 5834 5822 5826 5818 5837 5832 5813 5826 5835 5837 5828 5831 5813 5817 5835 5837 5830 5833 5836 5820 5767
5737 5743 5747 5750 5753 5757 5759 5762 5766 5769 5772 5773 5773 5779 5781 5833 5837 5832 5835 5831 5838 5840 5833 5837 5837 5824 5819 5834 5826 5814 5816 5800 5841 5832 5828 5822 5797 5821 5830 5825 5819 5825 5807 5773 5752
5740 5746 5750 5753 5758 5760 5762 5766 5769 5772 5774 5775 5778 5780 5787 5833 5820 5834 5836 5824 5834 5836 5837 5839 5830 5816 5823 5808 5802 5815 5800 5812 5815 5835 5820 5814 5802 5819 5819 5811 5808 5809 5783 5761 5742
5741 5747 5752 5757 5760 5762 5765 5767 5772 5775 5778 5784 5789 5776 5808 5809 5826 5830 5837 5830 5819 5824 5820 5819 5817 5802 5812 5811 5783 5799 5812 5824 5819 5813 5808 5798 5799 5824 5818 5805 5797 5794 5768 5748 5730
5744 5750 5755 5760 5762 5763 5767 5775 5772 5772 5785 5788 5798 5802 5812 5826 5832 5822 5832 5822 5822 5815 5797 5818 5801 5798 5803 5809 5811 5810 5805 5802 5818 5820 5800 5792 5791 5806 5811 5797 5788 5780 5751 5736 5726
5744 5751 5757 5760 5763 5764 5770 5778 5789 5797 5777 5808 5810 5809 5819 5825 5805 5817 5832 5806 5808 5794 5814 5810 5801 5809 5812 5808 5802 5801 5798 5790 5802 5808 5795 5790 5789 5809 5805 5780 5769 5752 5735 5735 5722
5744 5752 5757 5761 5765 5769 5786 5792 5811 5812 5777 5798 5810 5806 5809 5817 5806 5808 5820 5816 5805 5801 5807 5802 5799 5806 5801 5800 5788 5796 5785 5777 5772 5788 5794 5789 5787 5801 5783 5749 5722 5703 5711 5719 5716
5745 5751 5756 5762 5764 5793 5792 5807 5813 5810 5757 5779 5791 5805 5811 5815 5796 5822 5826 5813 5807 5796 5802 5804 5808 5795 5793 5792 5785 5769 5782 5776 5773 5767 5750 5791 5748 5769 5731 5711 5704 5692 5708 5698 5693
5745 5751 5756 5758 5773 5787 5797 5810 5809 5796 5720 5793 5797 5831 5820 5802 5805 5802 5826 5813 5792 5794 5797 5784 5789 5788 5786 5776 5783 5765 5781 5773 5773 5767 5768 5777 5761 5734 5725 5696 5691 5680 5674 5665 5655
5745 5752 5757 5767 5776 5795 5806 5810 5798 5747 5724 5783 5803 5792 5791 5801 5802 5806 5804 5815 5812 5793 5798 5794 5804 5792 5782 5787 5787 5786 5768 5766 5774 5779 5753 5758 5755 5689 5693 5691 5676 5662 5655 5646 5636
5746 5753 5757 5772 5777 5799 5803 5790 5748 5737 5787 5784 5784 5795 5793 5788 5789 5792 5787 5782 5773 5757 5760 5778 5778 5785 5782 5766 5774 5766 5745 5722 5723 5735 5733 5771 5749 5689 5688 5686 5681 5654 5641 5633 5629
5750 5754 5771 5779 5791 5795 5788 5762 5729 5778 5784 5798 5793 5797 5786 5796 5785 5782 5775 5771 5784 5774 5763 5758 5730 5757 5772 5756 5741 5743 5738 5716 5685 5699 5716 5749 5692 5680 5680 5677 5672 5654 5636 5630 5627
5752 5766 5770 5785 5786 5787 5766 5741 5755 5767 5783 5775 5787 5772 5781 5789 5779 5778 5774 5774 5766 5769 5742 5740 5746 5773 5766 5762 5756 5734 5721 5739 5715 5725 5718 5721 5680 5677 5667 5656 5652 5642 5636 5629 5621
5742 5760 5771 5781 5783 5773 5752 5738 5760 5774 5774 5774 5755 5782 5773 5763 5760 5775 5765 5765 5758 5764 5767 5749 5721 5756 5765 5766 5761 5737 5744 5708 5712 5677 5676 5712 5694 5658 5662 5647 5640 5634 5631 5623 5613
5741 5749 5770 5780 5781 5757 5738 5755 5766 5773 5769 5759 5759 5760 5769 5768 5773 5766 5763 5747 5758 5751 5757 5745 5725 5724 5741 5739 5730 5729 5718 5717 5706 5696 5674 5670 5662 5665 5652 5643 5623 5621 5620 5606 5594
5734 5733 5770 5776 5742 5755 5749 5754 5746 5757 5767 5761 5762 5757 5754 5758 5753 5759 5739 5733 5746 5746 5726 5726 5713 5696 5712 5742 5737 5727 5712 5703 5676 5666 5681 5674 5658 5647 5633 5624 5620 5613 5609 5602 5593
5720 5739 5769 5763 5729 5743 5751 5748 5750 5746 5751 5749 5749 5757 5757 5744 5730 5744 5747 5738 5739 5729 5711 5712 5697 5675 5690 5722 5712 5701 5712 5711 5704 5688 5668 5660 5638 5627 5613 5617 5618 5608 5603 5597 5588
5713 5720 5744 5748 5748 5731 5733 5737 5734 5746 5739 5743 5743 5748 5738 5734 5743 5727 5734 5723 5726 5716 5704 5705 5689 5677 5667 5680 5699 5694 5706 5712 5689 5651 5656 5643 5624 5609 5608 5613 5616 5605 5599 5591 5580
5712 5709 5713 5713 5720 5722 5728 5727 5723 5723 5735 5738 5730 5732 5727 5718 5726 5731 5727 5700 5705 5693 5701 5685 5670 5679 5683 5686 5690 5694 5697 5676 5657 5665 5638 5629 5610 5599 5613 5610 5608 5606 5597 5587 5581
5685 5688 5700 5706 5711 5709 5703 5712 5713 5718 5714 5714 5712 5721 5721 5706 5702 5697 5707 5699 5681 5688 5688 5689 5662 5669 5665 5681 5688 5687 5673 5676 5662 5654 5641 5619 5596 5603 5610 5616 5608 5603 5592 5581 5574
5679 5688 5685 5690 5703 5699 5704 5707 5704 5707 5707 5709 5705 5706 5697 5696 5704 5703 5705 5700 5697 5685 5677 5666 5662 5655 5650 5672 5675 5665 5659 5661 5646 5634 5623 5605 5600 5602 5607 5601 5595 5588 5579 5568 5558